CZ-6A DEB

Satellite information

Favourite Embed

Satellite Type and Status

DEBRISIN ORBIT

Key statistics

Satellite CZ-6A DEB at a glance.

Uptime

967

Days in orbit

Revolutions

≈ 14.2

Per day

Orbit

SSO

Sun Synchronous Orbit

Inclination

98.8

Latest

Satellite identification and parameters

Extended collection of information and parameters for CZ-6A DEB.

Object identification

Identified? True

Debris? True

Object name: CZ-6A DEB

International designator: 2022-151XF

Object number (NORAD): 55238

Object ID (CCSDS): 55238

Country: PEOPLES REPUBLIC OF CHINA (PRC)

Current information (Y/N): Y

RCS size: SMALL

Orbital parameters

Period: 101.446 minutes

Inclination: 98.7999 deg

SMA: 7205.253 km

Apoapsis: 847.888 km

Periapsis: 806.347 km

RAAN: 200.7925 deg

Eccentricy: 0.0028827

Argument of periapsis: 102.2325 deg

Mean anomaly: 258.2082 deg

Mean motion: 14.19478934 rev/day

Mean motion (dot): 0.00000281 rev/day2

B* drag term: 0.00015351 1/REarth

Two-line elements (TLE)

Creation date: July 4, 2025, 6:39 p.m.

Reference frame: TEME

Reference center: EARTH

Epoch: July 4, 2025, 1:13 p.m. UTC

TLE line 0: 0 CZ-6A DEB

TLE line 1: 1 55238U 22151XF 25185.55071484 .00000281 00000-0 15351-3 0 9998

TLE line 2: 2 55238 98.7999 200.7925 0028827 102.2325 258.2082 14.19478934136886

Live tracking on map

Real-time ground track for satellite CZ-6A DEB.

In-orbit conjunctions

A list of the most updated potential collisions computed for object CZ-6A DEB.

Target Orbit TCA Probability of collision Miss distance Type
COSMOS 1980 LEO 2025-04-24 22:41:58 0.0002840487 130.0 (m) PAYLOAD
CZ-6A DEB LEO 2025-01-21 23:43:52 0.0002435098 987.0 (m) DEBRIS
FENGYUN 1C DEB SSO 2025-01-08 03:38:24 0.0001505731 161.0 (m) DEBRIS
FENGYUN 1C DEB SSO 2024-12-21 12:15:09 0.0001245014 166.0 (m) DEBRIS
METEOR 1-5 LEO 2024-10-13 17:35:17 0.003690057 59.0 (m) PAYLOAD

Associated space launch

Chinese satellite reported for atmospheric/ocean/environmental/spatial parameter research purposes, details TBD.

CZ-6A DEB was lifted into orbit during the mission ‘Long March 6A | Yunhai 3’, on board a Long March 6A space rocket.

The launch took place on Nov. 11, 2022, 10:52 p.m. from Launch Complex 9A.

For more information about the launch, click the button.

Launch to space Long March 6A | Yunhai 3
Long March 6A | Yunhai 3

Agency: N/A

Status: Launch Successful

Launch date: Nov. 11, 2022, 10:52 p.m. UTC

Rocket: Long March 6A

Launch pad: Launch Complex 9A

Location: Taiyuan Satellite Launch Center, People's Republic of China

...

Latest news about this satellite

There are no fresh news available about this satellite. Check back as we update our databases every day.


Newsletter sign-up

Weekly statistics, charts and insights to help you stay on top of the space industry.